| Fund (series)↕ | Registrant↕ | Ticker↕ | Latest report↕ | Net assets▲ |
|---|---|---|---|---|
| Goldman Sachs Buffered S&P 500 Fund - Mar/Sep S000077435 | Goldman Sachs Variable Insurance Trust CIK 0001046292 | — | 2026-03-31 | $9.77M |
| Truth Social American Energy Security ETF S000097144 |
| Truth Social Funds CIK 0001040674 |
| — |
| 2026-03-31 |
| $9.79M |
| PROFUND VP INTERNET S000003974 | ProFunds CIK 0001039803 | — | 2026-03-31 | $9.79M |
| JNL/WCM China Quality Growth Fund S000075431 | JNL Series Trust CIK 0000933691 | — | 2026-03-31 | $9.80M |
| State Street(R) Utilities Select Sector SPDR(R) Premium I… S000093833 | SELECT SECTOR SPDR TRUST CIK 0001064641 | XLUI | 2026-03-31 | $9.80M |
| PROFUND VP MIDCAP VALUE S000003988 | ProFunds CIK 0001039803 | — | 2026-03-31 | $9.83M |
| Horizon Kinetics SPAC Active ETF S000078973 | Listed Funds Trust CIK 0001683471 | SPAQ | 2026-03-31 | $9.83M |
| Columbia Corporate Bond ETF S000097582 | Columbia ETF Trust I CIK 0001551950 | CCRP | 2026-03-31 | $9.86M |
| MOA CATHOLIC VALUES INDEX FUND S000068380 | MoA Funds Corp CIK 0000795259 | — | 2026-03-31 | $9.87M |
| Columbia Core Plus Bond ETF S000097583 | Columbia ETF Trust I CIK 0001551950 | CRXP | 2026-03-31 | $9.95M |
| Basic Materials S000003759 | Rydex Variable Trust CIK 0001064046 | — | 2026-03-31 | $9.97M |
| Columbia AAA CLO ETF S000097584 | Columbia ETF Trust I CIK 0001551950 | AAAC | 2026-03-31 | $10.02M |
| Northern Trust 2035 Tax-Exempt Distributing Ladder ETF S000093511 | Northern Funds CIK 0000916620 | MUNB | 2026-03-31 | $10.03M |
| Spectrum Active Advantage Fund S000049076 | Advisors Preferred Trust CIK 0001556505 | — | 2026-03-31 | $10.04M |
| Emerging Markets ex China Portfolio S000076838 | MORGAN STANLEY INSTITUTIONAL FUND INC CIK 0000836487 | — | 2026-03-31 | $10.06M |
| Northern Trust 2030 Inflation-Linked Distributing Ladder … S000093506 | Northern Funds CIK 0000916620 | TIPA | 2026-03-31 | $10.08M |
| Gabelli Global Technology Leaders ETF S000076599 | Gabelli ETFs Trust CIK 0001748425 | GGTL | 2026-03-31 | $10.10M |
| Madison Target Retirement 2020 Fund S000019110 | ULTRA SERIES FUND CIK 0000732697 | — | 2026-03-31 | $10.12M |
| T-REX 2X Long SMR Daily Target ETF S000087466 | ETF Opportunities Trust CIK 0001771146 | SMUP | 2026-03-31 | $10.13M |
| PROFUND VP PHARMACEUTICALS S000003975 | ProFunds CIK 0001039803 | — | 2026-03-31 | $10.17M |
| Calvert Global Equity Fund S000080179 | Calvert Management Series CIK 0000319676 | — | 2026-03-31 | $10.20M |
| S&P SmallCap 600 Pure Value Fund S000003740 | Rydex Variable Trust CIK 0001064046 | — | 2026-03-31 | $10.23M |
| Comstock Capital Value Fund S000001057 | Comstock Funds, Inc. CIK 0000830779 | — | 2026-03-31 | $10.27M |
| PROFUND VP MID-CAP S000004520 | ProFunds CIK 0001039803 | — | 2026-03-31 | $10.29M |
| Tradr 2X Long OPEN Daily ETF S000096123 | INVESTMENT MANAGERS SERIES TRUST II CIK 0001587982 | OPEX | 2026-03-31 | $10.36M |
| Cargile Fund S000062392 | PFS FUNDS CIK 0001103243 | — | 2026-03-31 | $10.43M |
| Fidelity Sustainable Target Date 2060 Fund S000080302 | Fidelity Aberdeen Street Trust CIK 0000880195 | — | 2026-03-31 | $10.45M |
| PlanRock Alternative Growth ETF S000083335 | NORTHERN LIGHTS FUND TRUST III CIK 0001537140 | PRAE | 2026-03-31 | $10.45M |
| FMI Global Fund S000089320 | FMI Funds Inc CIK 0001023391 | — | 2026-03-31 | $10.61M |
| Biotechnology Fund S000003711 | Rydex Variable Trust CIK 0001064046 | — | 2026-03-31 | $10.67M |
| Robinson Opportunistic Income Fund S000052274 | INVESTMENT MANAGERS SERIES TRUST CIK 0001318342 | — | 2026-03-31 | $10.69M |
| SBH SHORT TERM PLUS FUND S000063758 | Segall Bryant & Hamill Trust CIK 0000357204 | — | 2026-03-31 | $10.70M |
| Lincoln Opportunistic Hedged Equity Fund S000083326 | LINCOLN VARIABLE INSURANCE PRODUCTS TRU… CIK 0000914036 | — | 2026-03-31 | $10.72M |
| PROFUND VP COMMUNICATION SERVICES S000003980 | ProFunds CIK 0001039803 | — | 2026-03-31 | $10.73M |
| Guinness Atkinson Asia Focus Fund S000005893 | GUINNESS ATKINSON FUNDS CIK 0000919160 | — | 2026-03-31 | $10.74M |
| Alger Russell Innovation ETF S000088942 | Alger ETF Trust CIK 0001807486 | INVN | 2026-03-31 | $10.76M |
| GraniteShares YieldBOOST HOOD ETF S000094940 | GraniteShares ETF Trust CIK 0001689873 | HOYY | 2026-03-31 | $10.79M |
| Wireless Fund S000004816 | PFS FUNDS CIK 0001103243 | — | 2026-03-31 | $10.81M |
| PROFUND VP CONSUMER STAPLES S000003968 | ProFunds CIK 0001039803 | — | 2026-03-31 | $10.81M |
| Amplify Bitcoin Max Income Covered Call ETF S000091835 | Amplify ETF Trust CIK 0001633061 | BAGY | 2026-03-31 | $10.86M |
| Firsthand Alternative Energy Fund S000018833 | Firsthand Funds CIK 0000917124 | — | 2026-03-31 | $10.92M |
| Manor Fund S000012149 | MANOR INVESTMENT FUNDS INC CIK 0001003924 | — | 2026-03-31 | $10.95M |
| KraneShares China Alpha Index ETF S000085113 | Krane Shares Trust CIK 0001547576 | KCAI | 2026-03-31 | $11.01M |
| Transamerica ProFund UltraBear VP S000025331 | TRANSAMERICA SERIES TRUST CIK 0000778207 | — | 2026-03-31 | $11.08M |
| John Hancock International High Dividend ETF S000079041 | John Hancock Exchange-Traded Fund Trust CIK 0001478482 | JHID | 2026-03-31 | $11.13M |
| Tradr 2X Long SPY Quarterly ETF S000086119 | INVESTMENT MANAGERS SERIES TRUST II CIK 0001587982 | SPYQ | 2026-03-31 | $11.17M |
| Ocean Park High Income ETF S000085658 | Northern Lights Fund Trust CIK 0001314414 | — | 2026-03-31 | $11.24M |
| Nomura Energy Transition ETF S000082263 | Nomura ETF Trust CIK 0001969995 | PWER | 2026-03-31 | $11.24M |
| EQ/AB Sustainable U.S. Thematic Portfolio S000074628 | EQ Advisors Trust CIK 0001027263 | — | 2026-03-31 | $11.26M |
| State Street(R) SPDR(R) Portfolio S&P Sector Neutral Divi… S000081587 | SPDR SERIES TRUST CIK 0001064642 | SPDG | 2026-03-31 | $11.26M |